Location: Newcastle Observatory
(43.9158°N, 78.5831°W)
Time: 16:42:24
(UTC-05:00)

Amateur Radio Satellites - All Passes

Search period start: 17 December 2017 16:12
Search period end: 18 December 2017 16:12
Location: Newcastle Observatory, 43.9158°N, 78.5831°W

Satellite Date Start Highest point End Downlink Frequencies (MHz)
Time Altitude Azimuth
BEESAT 17 Dec 16:14:16 16:18:59 63° 287° (WNW) 16:23:40 436.000
M-CUBED/EXP-1 PRIME 17 Dec 16:14:22 16:16:06 12° 267° (W) 16:17:52 437.505
XW-2F 17 Dec 16:15:26 16:16:43 11° 62° (ENE) 16:17:59 145.980 - 146.000
ISS 17 Dec 16:23:01 16:26:19 70° 30° (NNE) 16:29:36 437.550
YUBILEINY 17 Dec 16:29:55 16:34:05 14° 287° (WNW) 16:38:16 435.215
XW-2C 17 Dec 16:32:18 16:35:00 19° 66° (ENE) 16:37:45 145.795 - 145.815
HO-68 17 Dec 16:36:28 16:41:26 21° 53° (NE) 16:46:24 435.675
ITUPSAT 1 17 Dec 16:45:12 16:49:28 33° 293° (WNW) 16:53:43 437.325
SO-50 17 Dec 16:49:17 16:52:15 17° 324° (NW) 16:55:15 436.795
KKS-1 17 Dec 16:51:34 16:55:09 24° 95° (E) 16:58:42 437.445
CUBESAT XI-V 17 Dec 16:57:01 17:01:40 58° 287° (WNW) 17:06:16 437.345
DOVE 4 17 Dec 16:58:51 17:03:47 41° 262° (W) 17:08:35 437.250
MOZHAYETS 4 17 Dec 17:03:38 17:06:13 15° 299° (WNW) 17:08:48
nSIGHT-1 17 Dec 17:05:40 17:08:40 37° 220° (SW) 17:11:39 .
NUDT-PHONESAT 17 Dec 17:11:35 17:14:57 34° 71° (ENE) 17:18:22 437.300
LilacSat-2 17 Dec 17:11:43 17:15:28 58° 74° (ENE) 17:19:16 437.200
PCSat 17 Dec 17:14:38 17:18:53 24° 108° (ESE) 17:23:09 145.827
KAITUO 1B 17 Dec 17:21:03 17:24:40 48° 73° (ENE) 17:28:20 145.475/437.950
XW-2D 17 Dec 17:21:25 17:25:11 73° 76° (ENE) 17:29:01 145.860 - 145.880
CUTE-I 17 Dec 17:21:39 17:26:55 62° 72° (ENE) 17:32:13 437.470
STARS 17 Dec 17:25:11 17:28:32 21° 94° (E) 17:31:52 437.465
O/OREOS (USA 219) 17 Dec 17:29:03 17:33:33 67° 64° (ENE) 17:37:59 437.305
XW-2B 17 Dec 17:37:26 17:41:13 75° 258° (WSW) 17:45:03 145.730 - 145.750
XW-2F 17 Dec 17:46:33 17:50:17 61° 260° (W) 17:54:04 145.980 - 146.000
SEEDS 17 Dec 17:47:39 17:50:57 23° 66° (ENE) 17:54:17 437.485
RS-15 17 Dec 17:51:32 18:02:02 31° 341° (NNW) 18:12:18 29.354- 29.394
UWE-3 17 Dec 17:57:30 18:00:01 16° 64° (ENE) 18:02:32 435.000/436.395/437.385
AAUSAT CUBESAT 2 17 Dec 17:57:46 17:59:43 13° 62° (ENE) 18:01:39 437.432
ISS 17 Dec 18:00:17 18:02:28 17° 227° (SW) 18:04:38 437.550
CUBEBUG 2 17 Dec 18:03:35 18:07:16 31° 69° (ENE) 18:10:57 437.445
XW-2C 17 Dec 18:05:30 18:08:57 33° 263° (W) 18:12:26 145.795 - 145.815
ZACube-1 17 Dec 18:15:29 18:17:27 13° 62° (ENE) 18:19:27 437.345
CUTE 1.7 + AOD 2 17 Dec 18:16:09 18:20:23 73° 76° (ENE) 18:24:41 437.475
HO-68 17 Dec 18:21:02 18:28:15 90° 242° (WSW) 18:35:29 435.675
KKS-1 17 Dec 18:27:44 18:31:45 34° 291° (WNW) 18:35:45 437.445
XW-2A 17 Dec 18:27:56 18:30:31 21° 68° (ENE) 18:33:08 145.665 - 145.685
Oscar 11 17 Dec 18:29:40 18:31:14 12° 60° (ENE) 18:32:49 .
STRAND 1 17 Dec 18:40:51 18:44:18 18° 91° (E) 18:47:43 437.568
AO-73 17 Dec 18:45:45 18:49:03 24° 67° (ENE) 18:52:22 145.935
NUDT-PHONESAT 17 Dec 18:46:29 18:48:54 17° 268° (W) 18:51:21 437.300
LilacSat-2 17 Dec 18:49:06 18:50:06 11° 271° (W) 18:51:06 437.200
PCSat 17 Dec 18:56:38 19:01:55 53° 306° (NW) 19:07:15 145.827
KAITUO 1B 17 Dec 18:57:17 18:58:56 12° 270° (W) 19:00:34 145.475/437.950
STARS 17 Dec 19:00:57 19:04:59 37° 291° (WNW) 19:09:00 437.465
CUTE-I 17 Dec 19:03:43 19:07:23 18° 269° (W) 19:11:03 437.470
O/OREOS (USA 219) 17 Dec 19:10:25 19:12:21 13° 262° (W) 19:14:15 437.305
BEESAT 3 17 Dec 19:15:22 19:19:12 48° 119° (ESE) 19:23:04 437.485
SEEDS 17 Dec 19:22:34 19:26:26 34° 264° (W) 19:30:20 437.485
FO-29 17 Dec 19:24:18 19:28:44 19° 86° (E) 19:32:50 435.910
AAUSAT CUBESAT 2 17 Dec 19:30:28 19:34:37 64° 259° (W) 19:38:48 437.432
UWE-3 17 Dec 19:32:05 19:36:05 48° 261° (W) 19:40:07 435.000/436.395/437.385
CUBEBUG 2 17 Dec 19:40:36 19:43:56 23° 266° (W) 19:47:15 437.445
ZACube-1 17 Dec 19:49:09 19:53:14 61° 260° (W) 19:57:22 437.345
CUTE 1.7 + AOD 2 17 Dec 19:55:52 19:56:43 10° 272° (W) 19:57:35 437.475
XW-2A 17 Dec 20:00:27 20:03:07 22° 265° (W) 20:05:49 145.665 - 145.685
DELFI C3 17 Dec 20:01:02 20:03:59 20° 66° (ENE) 20:06:57 145.870
Oscar 11 17 Dec 20:02:26 20:06:44 77° 258° (WSW) 20:11:06 .
BEESAT 2 17 Dec 20:03:44 20:07:32 44° 118° (ESE) 20:11:24 435.950
RS-15 17 Dec 20:09:17 20:19:30 30° 16° (NNE) 20:29:16 29.354- 29.394
HO-68 17 Dec 20:12:29 20:16:53 17° 272° (W) 20:21:18 435.675
STRAND 1 17 Dec 20:18:50 20:23:51 58° 288° (WNW) 20:28:50 437.568
AO-85 17 Dec 20:20:59 20:23:21 16° 110° (ESE) 20:25:48 145.980
AO-73 17 Dec 20:21:29 20:25:08 30° 264° (W) 20:28:50 145.935
PCSat 17 Dec 20:44:11 20:46:35 13° 328° (NNW) 20:49:00 145.827
BEESAT 3 17 Dec 20:53:55 20:56:58 21° 318° (NW) 21:00:02 437.485
Max Valier Satellite 17 Dec 21:00:51 21:04:28 63° 75° (ENE) 21:08:07 145.860
FO-29 17 Dec 21:07:51 21:14:42 75° 287° (WNW) 21:20:40 435.910
TIGRISAT 17 Dec 21:14:51 21:18:10 21° 94° (E) 21:21:31 435.000
UNISAT 6 17 Dec 21:18:53 21:22:31 25° 95° (E) 21:26:12 437.425
EO-88 17 Dec 21:20:30 21:24:08 76° 76° (ENE) 21:27:48 145.990 - 145.960
FALCONSAT 3 17 Dec 21:28:44 21:31:08 17° 166° (SSE) 21:33:32 435.103
DELFI C3 17 Dec 21:34:51 21:38:30 34° 263° (W) 21:42:10 145.870
LO-87 17 Dec 21:41:14 21:43:29 16° 66° (ENE) 21:45:44 145.935 - 145.965
BEESAT 2 17 Dec 21:42:13 21:45:27 22° 317° (NW) 21:48:42 435.950
SO-50 17 Dec 21:56:47 22:00:12 20° 39° (NE) 22:03:39 436.795
AO-85 17 Dec 21:59:25 22:03:15 50° 309° (NW) 22:07:20 145.980
RS-15 17 Dec 22:23:09 22:35:00 63° 47° (NE) 22:46:09 29.354- 29.394
PRISM 17 Dec 22:28:18 22:32:06 36° 98° (E) 22:35:52 437.425
SPROUT 17 Dec 22:37:54 22:40:25 16° 63° (ENE) 22:42:57 437.525
ESTCUBE 1 17 Dec 22:41:13 22:45:41 68° 74° (ENE) 22:50:13 437.505/2401.250
TIGRISAT 17 Dec 22:50:55 22:54:59 39° 289° (WNW) 22:59:06 435.000
FO-29 17 Dec 22:54:51 22:58:24 15° 309° (NW) 23:01:47 435.910
UNISAT 6 17 Dec 22:55:20 22:59:14 32° 291° (WNW) 23:03:12 437.425
FALCONSAT 3 17 Dec 23:06:41 23:09:35 22° 182° (S) 23:12:28 435.103
LO-87 17 Dec 23:13:25 23:16:37 33° 263° (W) 23:19:51 145.935 - 145.965
POLYITAN 1 17 Dec 23:13:25 23:15:54 15° 91° (E) 23:18:22 437.675
AIST 2D 17 Dec 23:30:58 23:34:32 81° 100° (E) 23:38:05 435.315
SO-50 17 Dec 23:36:29 23:41:09 74° 238° (WSW) 23:45:52 436.795
DUCHIFAT 1 17 Dec 23:38:00 23:41:14 21° 94° (E) 23:44:27 145.980
QB50P2 17 Dec 23:38:26 23:42:13 31° 96° (E) 23:45:59 145.880/145.840
AO-85 17 Dec 23:44:23 23:44:45 10° 332° (NNW) 23:45:08 145.980
VELOX 1 17 Dec 23:58:47 00:03:12 67° 73° (ENE) 00:07:37 145.980
PRISM 18 Dec 00:04:06 00:07:07 20° 295° (WNW) 00:10:08 437.425
NANOSAT C BR1 18 Dec 00:05:56 00:10:03 49° 100° (E) 00:14:08 145.865
SPROUT 18 Dec 00:11:44 00:15:53 53° 260° (W) 00:20:02 437.525
ESTCUBE 1 18 Dec 00:20:56 00:22:57 13° 271° (W) 00:24:59 437.505/2401.250
UKube-1 18 Dec 00:21:15 00:24:03 17° 63° (ENE) 00:26:52 .
EO-79 18 Dec 00:23:41 00:27:57 89° 116° (ESE) 00:32:10 145.935-145.965
RS-15 18 Dec 00:36:17 00:46:57 44° 252° (WSW) 00:57:10 29.354- 29.394
DX 1 18 Dec 00:43:11 00:47:20 44° 71° (ENE) 00:51:30 434.975-435.025
50 SAT 18 Dec 00:45:17 00:48:16 39° 73° (ENE) 00:51:15 437.505
Oscar 19 18 Dec 00:45:32 00:49:07 18° 91° (E) 00:52:40 437.125/150
FALCONSAT 3 18 Dec 00:45:56 00:48:00 14° 197° (SSW) 00:50:04 435.103
POLYITAN 1 18 Dec 00:47:51 00:51:57 50° 288° (WNW) 00:56:03 437.675
DUCHIFAT 1 18 Dec 01:13:09 01:16:58 35° 290° (WNW) 01:20:47 145.980
QB50P2 18 Dec 01:14:24 01:17:52 25° 293° (WNW) 01:21:18 145.880/145.840
AO-91 18 Dec 01:23:52 01:26:56 31° 97° (E) 01:29:59 145.960
YUBILEINY 18 Dec 01:37:46 01:44:51 28° 81° (E) 01:51:57 435.215
VELOX 1 18 Dec 01:38:10 01:40:05 12° 270° (W) 01:41:59 145.980
BUGSAT 1 18 Dec 01:38:44 01:42:47 75° 285° (WNW) 01:46:52 437.445
NANOSAT C BR1 18 Dec 01:42:42 01:45:21 17° 297° (WNW) 01:48:01 145.865
BEESAT 18 Dec 01:45:27 01:49:02 22° 63° (ENE) 01:52:38 436.000
UKube-1 18 Dec 01:55:29 01:59:41 50° 260° (W) 02:03:54 .
Gurwin Techsat 1B 18 Dec 01:55:39 02:00:55 58° 101° (E) 02:06:08 435.225
PCSat 18 Dec 01:59:58 02:04:44 30° 46° (NE) 02:09:27 145.827
ITUPSAT 1 18 Dec 02:15:20 02:19:45 39° 69° (ENE) 02:24:10 437.325
50 SAT 18 Dec 02:19:50 02:20:23 10° 269° (W) 02:20:55 437.505
DX 1 18 Dec 02:20:39 02:23:42 18° 267° (W) 02:26:47 434.975-435.025
Oscar 19 18 Dec 02:23:41 02:28:49 59° 288° (WNW) 02:33:55 437.125/150
CUBESAT XI-V 18 Dec 02:25:34 02:28:51 19° 63° (ENE) 02:32:10 437.345
MOZHAYETS 4 18 Dec 02:27:51 02:32:23 75° 76° (ENE) 02:36:58
AO-91 18 Dec 03:01:13 03:03:11 15° 295° (WNW) 03:05:09 145.960
BEESAT 18 Dec 03:21:57 03:26:30 45° 261° (W) 03:31:05 436.000
AO-7 18 Dec 03:28:21 03:36:30 52° 102° (ESE) 03:44:35 .
BEESAT 3 18 Dec 03:30:32 03:34:20 44° 51° (NE) 03:38:03 437.485
YUBILEINY 18 Dec 03:32:09 03:40:54 67° 281° (WNW) 03:49:46 435.215
Gurwin Techsat 1B 18 Dec 03:36:31 03:40:24 21° 299° (WNW) 03:44:17 435.225
PCSat 18 Dec 03:43:08 03:48:20 49° 246° (WSW) 03:53:31 145.827
ITAMSAT 1 18 Dec 03:43:59 03:48:59 46° 100° (E) 03:53:55 435.822/435.867
M-CUBED/EXP-1 PRIME 18 Dec 03:48:20 03:52:36 44° 103° (ESE) 03:56:35 437.505
KKS-1 18 Dec 03:50:44 03:54:29 27° 66° (ENE) 03:58:14 437.445
ITUPSAT 1 18 Dec 03:53:53 03:57:41 24° 266° (W) 04:01:31 437.325
CUBESAT XI-V 18 Dec 04:01:17 04:05:49 51° 260° (W) 04:10:25 437.345
MOZHAYETS 4 18 Dec 04:08:31 04:10:04 12° 272° (W) 04:11:37
BEESAT 2 18 Dec 04:19:47 04:23:38 41° 50° (NE) 04:27:25 435.950
STARS 18 Dec 04:22:58 04:26:27 24° 66° (ENE) 04:29:57 437.465
AO-85 18 Dec 04:48:15 04:52:25 29° 45° (NE) 04:56:49 145.980
DOVE 4 18 Dec 04:56:27 05:00:45 48° 98° (E) 05:04:50 437.250
BEESAT 3 18 Dec 05:08:51 05:11:32 18° 248° (WSW) 05:14:11 437.485
XW-2B 18 Dec 05:10:57 05:11:38 10° 89° (E) 05:12:20 145.730 - 145.750
XW-2F 18 Dec 05:18:38 05:20:17 12° 90° (E) 05:21:55 145.980 - 146.000
AO-7 18 Dec 05:21:26 05:29:03 41° 301° (WNW) 05:36:39 .
M-CUBED/EXP-1 PRIME 18 Dec 05:23:17 05:26:37 21° 302° (WNW) 05:29:48 437.505
ITAMSAT 1 18 Dec 05:24:01 05:28:10 25° 297° (WNW) 05:32:17 435.822/435.867
KKS-1 18 Dec 05:26:57 05:30:56 31° 263° (W) 05:34:55 437.445
NO-84 18 Dec 05:27:27 05:30:16 44° 136° (SE) 05:33:17 435.350 FM
YUBILEINY 18 Dec 05:35:02 05:39:41 15° 305° (NW) 05:44:23 435.215
XW-2C 18 Dec 05:36:33 05:39:36 22° 94° (E) 05:42:37 145.795 - 145.815
CUTE-I 18 Dec 05:37:59 05:42:01 22° 92° (E) 05:46:02 437.470
FO-29 18 Dec 05:38:40 05:42:41 15° 51° (NE) 05:46:38 435.910
HO-68 18 Dec 05:49:15 05:53:16 16° 88° (E) 05:57:16 435.675
STRAND 1 18 Dec 05:57:42 06:02:07 30° 66° (ENE) 06:06:33 437.568
BEESAT 2 18 Dec 05:58:06 06:01:04 20° 248° (WSW) 06:04:00 435.950
STARS 18 Dec 05:58:35 06:02:37 35° 263° (W) 06:06:39 437.465
CUTE 1.7 + AOD 2 18 Dec 06:01:39 06:03:10 12° 88° (E) 06:04:40 437.475
NUDT-PHONESAT 18 Dec 06:13:26 06:16:59 39° 98° (E) 06:20:30 437.300
LilacSat-2 18 Dec 06:17:24 06:21:17 74° 101° (E) 06:25:09 437.200
KAITUO 1B 18 Dec 06:24:11 06:27:57 57° 101° (E) 06:31:40 145.475/437.950
XW-2D 18 Dec 06:26:17 06:30:09 89° 66° (ENE) 06:34:00 145.860 - 145.880
AO-85 18 Dec 06:28:22 06:32:59 46° 242° (WSW) 06:37:53 145.980
DOVE 4 18 Dec 06:35:09 06:38:01 17° 298° (WNW) 06:40:47 437.250
XW-2B 18 Dec 06:42:22 06:46:12 61° 286° (WNW) 06:49:59 145.730 - 145.750
XW-2F 18 Dec 06:50:56 06:54:40 50° 287° (WNW) 06:58:22 145.980 - 146.000
SEEDS 18 Dec 07:04:31 07:08:24 34° 97° (E) 07:12:14 437.485
NO-84 18 Dec 07:05:03 07:07:38 24° 336° (NNW) 07:10:24 435.350 FM
XW-2C 18 Dec 07:10:25 07:13:45 28° 291° (WNW) 07:17:05 145.795 - 145.815
AAUSAT CUBESAT 2 18 Dec 07:11:53 07:14:43 18° 92° (E) 07:17:32 437.432
CUTE-I 18 Dec 07:17:12 07:22:22 52° 290° (WNW) 07:27:29 437.470
AO-7 18 Dec 07:18:05 07:19:31 11° 324° (NW) 07:20:57 .
FO-29 18 Dec 07:18:35 07:26:16 62° 70° (ENE) 07:33:52 435.910
UWE-3 18 Dec 07:19:46 07:23:35 28° 96° (E) 07:27:27 435.000/436.395/437.385
XW-2A 18 Dec 07:20:12 07:22:39 18° 94° (E) 07:25:06 145.665 - 145.685
CUBEBUG 2 18 Dec 07:28:13 07:32:29 61° 101° (E) 07:36:52 437.445
HO-68 18 Dec 07:34:46 07:41:59 85° 106° (ESE) 07:49:09 435.675
CUTE 1.7 + AOD 2 18 Dec 07:35:09 07:39:26 67° 285° (WNW) 07:43:40 437.475
ZACube-1 18 Dec 07:35:58 07:39:29 23° 94° (E) 07:43:03 437.345
STRAND 1 18 Dec 07:36:32 07:41:12 35° 263° (W) 07:45:53 437.568
O/OREOS (USA 219) 18 Dec 07:42:25 07:46:55 60° 110° (ESE) 07:51:26 437.305
NUDT-PHONESAT 18 Dec 07:48:09 07:50:30 16° 295° (WNW) 07:52:51 437.300
Oscar 11 18 Dec 07:49:03 07:52:04 18° 92° (E) 07:55:02 .
LilacSat-2 18 Dec 07:54:31 07:54:57 10° 299° (WNW) 07:55:23 437.200
KAITUO 1B 18 Dec 07:59:55 08:01:26 12° 297° (WNW) 08:02:55 145.475/437.950
AO-73 18 Dec 08:06:54 08:11:06 42° 98° (E) 08:15:21 145.935
TIGRISAT 18 Dec 08:15:09 08:18:21 21° 66° (ENE) 08:21:33 435.000
UNISAT 6 18 Dec 08:19:13 08:22:42 25° 67° (ENE) 08:26:13 437.425
SEEDS 18 Dec 08:40:32 08:43:53 23° 293° (WNW) 08:47:12 437.485
NO-84 18 Dec 08:44:13 08:45:51 13° 358° (N) 08:47:32 435.350 FM
AAUSAT CUBESAT 2 18 Dec 08:46:26 08:50:21 41° 289° (WNW) 08:54:14 437.432
XW-2A 18 Dec 08:52:25 08:55:21 26° 290° (WNW) 08:58:16 145.665 - 145.685
UWE-3 18 Dec 08:56:14 08:59:58 28° 292° (WNW) 09:03:46 435.000/436.395/437.385
FO-29 18 Dec 09:04:49 09:11:35 32° 268° (W) 09:18:21 435.910
CUBEBUG 2 18 Dec 09:06:21 09:08:39 14° 297° (WNW) 09:10:59 437.445
DELFI C3 18 Dec 09:10:06 09:13:23 25° 95° (E) 09:16:38 145.870
ZACube-1 18 Dec 09:11:49 09:15:50 36° 290° (WNW) 09:19:53 437.345
PRISM 18 Dec 09:18:30 09:22:11 32° 69° (ENE) 09:25:53 437.425
O/OREOS (USA 219) 18 Dec 09:23:39 09:26:44 17° 308° (NW) 09:29:49 437.305
HO-68 18 Dec 09:23:46 09:28:52 22° 306° (NW) 09:33:59 435.675
Oscar 11 18 Dec 09:24:14 09:28:24 44° 288° (WNW) 09:32:32 .
nSIGHT-1 18 Dec 09:43:26 09:46:13 27° 138° (SE) 09:48:59 .
AO-73 18 Dec 09:43:48 09:47:03 20° 294° (WNW) 09:50:19 145.935
TIGRISAT 18 Dec 09:50:52 09:54:49 36° 263° (W) 09:58:46 435.000
UNISAT 6 18 Dec 09:55:32 09:59:19 30° 264° (W) 10:03:06 437.425
Max Valier Satellite 18 Dec 10:02:39 10:06:24 73° 102° (ESE) 10:10:08 145.860
AIST 2D 18 Dec 10:06:09 10:09:20 33° 71° (ENE) 10:12:32 435.315
POLYITAN 1 18 Dec 10:07:44 10:10:00 14° 62° (ENE) 10:12:15 437.675
EO-88 18 Dec 10:20:54 10:24:35 82° 102° (ESE) 10:28:15 145.990 - 145.960
NO-84 18 Dec 10:21:34 10:24:10 19° 19° (NNE) 10:26:53 435.350 FM
DUCHIFAT 1 18 Dec 10:31:16 10:34:13 19° 65° (ENE) 10:37:12 145.980
QB50P2 18 Dec 10:32:15 10:35:49 28° 68° (ENE) 10:39:25 145.880/145.840
ESTCUBE 1 18 Dec 10:33:58 10:36:03 13° 89° (E) 10:38:08 437.505/2401.250
LO-87 18 Dec 10:39:08 10:41:21 16° 93° (E) 10:43:33 145.935 - 145.965
ISS 18 Dec 10:39:46 10:43:02 69° 145° (SE) 10:46:18 437.550
DELFI C3 18 Dec 10:44:46 10:48:04 26° 291° (WNW) 10:51:20 145.870
PRISM 18 Dec 10:54:08 10:57:28 23° 265° (W) 11:00:49 437.425
NANOSAT C BR1 18 Dec 10:58:59 11:02:55 42° 71° (ENE) 11:06:52 145.865
EO-79 18 Dec 11:16:55 11:21:05 77° 74° (ENE) 11:25:16 145.935-145.965
nSIGHT-1 18 Dec 11:19:11 11:22:18 45° 336° (NNW) 11:25:25 .
AIST 2D 18 Dec 11:40:25 11:42:36 15° 268° (W) 11:44:47 435.315
Gurwin Techsat 1B 18 Dec 11:40:59 11:44:08 16° 58° (ENE) 11:47:17 435.225
POLYITAN 1 18 Dec 11:41:11 11:45:18 57° 259° (W) 11:49:26 437.675
YUBILEINY 18 Dec 11:45:58 11:50:39 15° 55° (NE) 11:55:16 435.215
VELOX 1 18 Dec 11:49:45 11:50:58 11° 89° (E) 11:52:11 145.980
SPROUT 18 Dec 11:56:10 11:59:31 22° 94° (E) 12:02:50 437.525
NO-84 18 Dec 11:58:16 12:01:53 72° 37° (NE) 12:05:48 435.350 FM
Oscar 19 18 Dec 12:03:23 12:07:52 31° 66° (ENE) 12:12:23 437.125/150
DUCHIFAT 1 18 Dec 12:05:42 12:09:36 39° 262° (W) 12:13:32 145.980
QB50P2 18 Dec 12:08:00 12:11:34 26° 265° (W) 12:15:08 145.880/145.840
ESTCUBE 1 18 Dec 12:08:46 12:13:18 67° 286° (WNW) 12:17:47 437.505/2401.250
LO-87 18 Dec 12:11:37 12:14:51 33° 289° (WNW) 12:18:03 145.935 - 145.965
ISS 18 Dec 12:16:50 12:19:45 28° 344° (NNW) 12:22:39 437.550
AO-91 18 Dec 12:21:18 12:25:38 39° 72° (ENE) 12:29:34 145.960
BUGSAT 1 18 Dec 12:29:15 12:33:16 88° 66° (ENE) 12:37:18 437.445
NANOSAT C BR1 18 Dec 12:36:01 12:38:48 17° 268° (W) 12:41:37 145.865
AO-7 18 Dec 12:39:44 12:45:19 20° 47° (NE) 12:50:56 .
RS-15 18 Dec 12:48:55 12:59:07 32° 104° (ESE) 13:09:15 29.354- 29.394
nSIGHT-1 18 Dec 12:56:31 12:59:03 21° 355° (N) 13:01:35 .
M-CUBED/EXP-1 PRIME 18 Dec 13:04:31 13:04:55 10° 51° (NE) 13:05:18 437.505
Gurwin Techsat 1B 18 Dec 13:18:05 13:23:24 79° 256° (WSW) 13:28:46 435.225
VELOX 1 18 Dec 13:23:30 13:27:55 74° 286° (WNW) 13:32:17 145.980
ITAMSAT 1 18 Dec 13:27:39 13:29:45 12° 56° (NE) 13:31:51 435.822/435.867
SPROUT 18 Dec 13:31:37 13:35:27 34° 291° (WNW) 13:39:17 437.525
50 SAT 18 Dec 13:31:43 13:34:22 25° 97° (E) 13:37:01 437.505
NO-84 18 Dec 13:36:21 13:38:51 17° 232° (SW) 13:41:27 435.350 FM
YUBILEINY 18 Dec 13:40:36 13:49:25 68° 78° (ENE) 13:58:07 435.215
UKube-1 18 Dec 13:41:20 13:44:45 23° 94° (E) 13:48:09 .
Oscar 19 18 Dec 13:42:25 13:47:06 35° 263° (W) 13:51:49 437.125/150
SO-50 18 Dec 13:52:40 13:56:16 24° 113° (ESE) 13:59:55 436.795
ISS 18 Dec 13:54:20 13:56:56 21° 4° (N) 13:59:33 437.550
AO-91 18 Dec 13:58:34 14:02:09 21° 265° (W) 14:05:28 145.960
DX 1 18 Dec 14:05:36 14:09:56 67° 102° (ESE) 14:14:15 434.975-435.025
MOZHAYETS 4 18 Dec 14:22:32 14:25:21 16° 91° (E) 14:28:10
AO-7 18 Dec 14:28:32 14:36:49 77° 68° (ENE) 14:45:10 .
nSIGHT-1 18 Dec 14:33:10 14:35:58 26° 15° (NNE) 14:38:46 .
M-CUBED/EXP-1 PRIME 18 Dec 14:33:56 14:38:21 69° 69° (ENE) 14:42:58 437.505
RS-15 18 Dec 14:58:05 15:10:29 80° 306° (NW) 15:22:45 29.354- 29.394
ITAMSAT 1 18 Dec 15:03:10 15:08:22 82° 74° (ENE) 15:13:36 435.822/435.867
50 SAT 18 Dec 15:04:04 15:06:06 16° 293° (WNW) 15:08:08 437.505
UKube-1 18 Dec 15:16:55 15:20:50 34° 291° (WNW) 15:24:43 .
BEESAT 18 Dec 15:20:20 15:24:48 39° 98° (E) 15:29:15 436.000
ISS 18 Dec 15:30:49 15:33:59 43° 24° (NNE) 15:37:09 437.550
SO-50 18 Dec 15:32:15 15:36:30 42° 312° (NW) 15:40:49 436.795
YUBILEINY 18 Dec 15:38:25 15:45:27 28° 279° (W) 15:52:27 435.215
DX 1 18 Dec 15:43:26 15:45:34 14° 300° (WNW) 15:47:42 434.975-435.025
ITUPSAT 1 18 Dec 15:51:29 15:56:17 78° 103° (ESE) 16:01:04 437.325
CUBESAT XI-V 18 Dec 15:56:18 16:00:39 35° 97° (E) 16:04:56 437.345
MOZHAYETS 4 18 Dec 15:58:18 16:02:51 56° 287° (WNW) 16:07:23
DOVE 4 18 Dec 16:01:52 16:07:01 62° 73° (ENE) 16:11:58 437.250
